Location: Boston
(42.3580°N, 71.0600°W)
Time: 19:42:01
(UTC-05:00)

Vanguard 3 - Visible Passes

Search period start: 16 December 2017 00:00
Search period end: 26 December 2017 00:00
Orbit: 509 x 3263 km, 33.3° (Epoch: 15 December)

Date Brightness Start Highest point End Pass type
(mag) Time Alt. Az. Time Alt. Az. Time Alt. Az.
21 Dec 11.6 06:19:12 10° SSE 06:19:34 10° SSE 06:19:55 10° SSE visible
23 Dec 11.4 05:57:09 10° S 06:03:41 15° SSE 06:08:54 10° ESE visible
25 Dec 11.2 05:38:05 10° SSW 05:47:42 20° SSE 05:54:49 10° ESE visible
